sat.trackr.live / text

‹ back to catalog

HJS-7B

NORAD 65618 · 2025-209B

PAYLOAD ACTIVE UNKNOWN

§ Identity

Operator
Country
PRC
Launch date
2025-09-16
Launch site
JSC
Launch vehicle
Mass (kg)
RCS (m²)

External: N2YO · Heavens-Above · Gunter

§ Orbital elements

Epoch: 2026-09-20T13:56:55.914144Z

Period
107.34 min
Inclination
50.0015°
Eccentricity
0.0001283
Mean motion
13.41472735 rev/d
Perigee alt
1,102.8 km
Apogee alt
1,104.8 km
Semi-major
7,481.9 km
B*
5.3164e-5
RAAN
9.7717°
Arg perigee
74.0953°
Mean anomaly
286.0066°
Rev number
5,044

§ Raw data

HJS-7B1 65618U 25209B   26263.58120271 -.00000099  00000+0  53164-4 0  99902 65618  50.0015   9.7717 0001283  74.0953 286.0066 13.41472735 50440

JSON: /api/v1/satellites/65618 · /tle

For live sub-satellite position, see the globe view (requires WebGL).

§ Visibility from observer

Set your observer location to see the next 7 days of passes ≥ 10°. The values pass through the URL so the page stays shareable.

No JS? Fill the form by hand. The geolocation button needs JavaScript.